Regional Weather Roundup
Issued by NWS Kansas City/Pleasant Hill, MO

Home | Current Version | Previous Version | Text Only | Print | Product List | Glossary On
Versions: 1 2 3 4 5 6 7 8 9 10 11 12 13 14 15 16 17 18 19 20 21 22 23 24 25 26 27 28 29 30 31 32 33 34 35 36 37 38 39 40 41 42 43 44 45 46 47 48 49 50
000
ASUS43 KEAX 212304
RWREAX

WEATHER ROUNDUP FOR EASTERN KANSAS AND NORTHWEST MISSOURI
NATIONAL WEATHER SERVICE KANSAS CITY/PLEASANT HILL MO
600 PM CDT TUE OCT 21 2014

KSZ040-057-103>105-MOZ028-029-037-043-220000-
...KANSAS CITY METROPOLITAN AREA...

CITY           SKY/WX    TMP DP  RH WIND       PRES   REMARKS
K.C. INTL      CLEAR     68  45  43 SE8       30.07S
K.C. DOWNTOWN  CLEAR     70  44  39 E8        30.05F
LEES SUMMIT    CLEAR     69  44  40 E5        30.08S
OLATHE - IXD   CLEAR     71  46  40 SE6       30.07S
OLATHE - OJC   CLEAR     70  45  40 E7        30.06F
LAWRENCE       HAZE      69  45  41 SE5       30.05S VSB 1

$$

MOZ001>008-011>017-020>025-030>033-038>040-044>046-053-054-220000-
...NORTHERN AND CENTRAL MISSOURI...

CITY           SKY/WX    TMP DP  RH WIND       PRES   REMARKS
ST. JOSEPH     CLEAR     69  42  37 SE6       30.06S
MOSBY          CLEAR     70  37  30 E3        30.07S
WHITEMAN AFB   CLEAR     71  41  34 CALM      30.08S
CLINTON        CLEAR     72  46  40 CALM      30.09S
SEDALIA        CLEAR     72  43  35 CALM      30.10S
WARSAW         NOT AVBL
MARSHALL       CLEAR     72  46  40 E3        30.10S
CHILLICOTHE      N/A     70  46  42 E3        30.11R
MOBERLY        CLEAR     66  41  39 NE5       30.13R
KIRKSVILLE     CLEAR     61  45  55 E6        30.14R

$$

MOZ041-047>049-056>058-063>065-088>090-097-220000-
...EASTERN AND SOUTHERN MISSOURI...

CITY           SKY/WX    TMP DP  RH WIND       PRES   REMARKS
ST. LOUIS INTL CLEAR     64  42  44 NE8       30.12S
SPIRIT OF STL  CLEAR     61  43  51 E6        30.11R
COLUMBIA       CLEAR     66  45  46 NE7       30.10S
JEFFERSON CITY CLEAR     70  44  39 NE6       30.09R
MEXICO         CLEAR     66  48  52 E5        30.12R HAZE
ROLLA          CLEAR     65  46  50 NE3       30.08S
LEBANON        CLEAR     68  41  37 CALM      30.10R
OSAGE BEACH    CLEAR     66  43  42 NE3       30.09S
SPRINGFIELD    CLEAR     70  46  42 NE5       30.07F
BRANSON        CLEAR     72  50  46 CALM      30.09S
NEVADA         CLEAR     70  48  46 E5        30.07
JOPLIN         CLEAR     73  49  42 NE5       30.06F
WEST PLAINS    CLEAR     70  42  36 N3        30.08F

$$

IAZ060-094-KSZ022-034>040-054-083-096-NEZ052-066-093-220000-
...KANSAS...SOUTHEAST NEBRASKA AND IOWA...

CITY           SKY/WX    TMP DP  RH WIND       PRES   REMARKS
TOPEKA         CLEAR     72  44  36 E8        30.04F
MANHATTAN      CLEAR     75  51  43 SE10      30.00F
EMPORIA        CLEAR     72  54  53 SE7       30.03F
CHANUTE        CLEAR     72  57  59 SE5       30.05S
WICHITA        PTCLDY    79  58  48 S9        30.00F
OMAHA          CLEAR     69  41  36 SE10      30.03S
LINCOLN        CLEAR     72  42  34 SE12      30.01F
FALLS CITY     CLEAR     69  39  33 SE8       30.04S
LAMONI         CLEAR     65  47  52 E7        30.10S
DES MOINES     CLEAR     63  43  48 E8        30.12S

$$




USA.gov is the U.S. government's official web portal to all federal, state and local government web resources and services.